User: anonymous
Location: Bush Observatory
(40.2653°N, 94.3194°W)
Time: 00:29:45
(UTC-05:00)
Language:

Cosmos 1933 Rocket - Orbit

View from above orbital plane
View from above orbital plane
View from above satellite
View from above satellite

Ground track
Ground track

The orbit data is extracted from the following two-line orbital elements,

1 18959U 88020B   14105.85874605  .00000522  00000-0  61534-4 0  2146
2 18959 082.5366 272.8226 0016587 001.2627 112.3772 14.82757151408891
Epoch (UTC): 15 April 2014 20:36:35
Eccentricity: 0.0016587
inclination: 82.5366°
perigee height: 609 km
apogee height: 632 km
right ascension of ascending node: 272.8226°
argument of perigee: 1.2627°
revolutions per day: 14.82757151
mean anomaly at epoch: 112.3772°
orbit number at epoch: 40889

The dashed part of the orbit path shows where the satellite is in the earth's shadow,  

DLR